• In Lithuania
  • List of Countries
  • For 7 days
  • Water Temperature
  • Satellite Maps
  • Weather Map
  • Weather Widgets
  • user-avatar
    Login

    Hourly Weather Privolnyy

    Today, 21 July, Saturday

    Time Temperature Precipitation Wind Pressure Humidity
    00:00 +22°C° 0.2 mm 3 mps 751 mmHg 77%
    01:00 +22°C° 0.1 mm 3 mps 751 mmHg 79%
    02:00 +22°C° 0.1 mm 3 mps 751 mmHg 80%
    03:00 +21°C° 0 mm 2 mps 751 mmHg 84%
    04:00 +21°C° 0 mm 3 mps 751 mmHg 84%
    05:00 +22°C° 0 mm 3 mps 751 mmHg 84%
    06:00 +22°C° 0 mm 3 mps 751 mmHg 84%
    07:00 +25°C° 0.1 mm 3 mps 751 mmHg 77%
    08:00 +26°C° 0.1 mm 4 mps 752 mmHg 70%
    09:00 +28°C° 0 mm 4 mps 752 mmHg 62%
    10:00 +30°C° 0.3 mm 4 mps 752 mmHg 57%
    11:00 +32°C° 0.3 mm 4 mps 752 mmHg 51%
    12:00 +33°C° 0.3 mm 4 mps 752 mmHg 45%
    13:00 +33°C° 0 mm 4 mps 752 mmHg 45%
    14:00 +33°C° 0 mm 4 mps 752 mmHg 45%
    15:00 +33°C° 0 mm 4 mps 752 mmHg 44%
    16:00 +33°C° 0 mm 4 mps 752 mmHg 46%
    17:00 +33°C° 0 mm 4 mps 752 mmHg 47%
    18:00 +32°C° 0 mm 4 mps 752 mmHg 49%
    19:00 +30°C° 0.1 mm 4 mps 752 mmHg 53%
    20:00 +28°C° 0.1 mm 4 mps 752 mmHg 58%
    21:00 +27°C° 0.1 mm 3 mps 752 mmHg 62%
    22:00 +26°C° 0 mm 3 mps 752 mmHg 65%
    23:00 +25°C° 0 mm 3 mps 752 mmHg 68%

    Tomorrow, 22 July, Sunday

    Time Temperature Precipitation Wind Pressure Humidity
    00:00 +24°C° 0 mm 3 mps 752 mmHg 71%
    01:00 +24°C° 0 mm 3 mps 752 mmHg 73%
    02:00 +24°C° 0 mm 3 mps 752 mmHg 76%
    03:00 +22°C° 0 mm 3 mps 752 mmHg 78%
    04:00 +23°C° 0 mm 2 mps 752 mmHg 79%
    05:00 +24°C° 0 mm 2 mps 752 mmHg 79%
    06:00 +24°C° 0 mm 2 mps 752 mmHg 80%
    07:00 +26°C° 0.2 mm 3 mps 752 mmHg 72%
    08:00 +28°C° 0.2 mm 3 mps 752 mmHg 64%
    09:00 +29°C° 0.2 mm 3 mps 752 mmHg 57%
    10:00 +30°C° 0 mm 3 mps 752 mmHg 53%
    11:00 +32°C° 0 mm 4 mps 752 mmHg 48%
    12:00 +33°C° 0 mm 4 mps 752 mmHg 44%
    13:00 +33°C° 0 mm 4 mps 752 mmHg 43%
    14:00 +33°C° 0 mm 4 mps 752 mmHg 43%
    15:00 +34°C° 0 mm 4 mps 751 mmHg 42%
    16:00 +33°C° 0 mm 4 mps 751 mmHg 44%
    17:00 +31°C° 0 mm 3 mps 751 mmHg 47%
    18:00 +31°C° 0 mm 3 mps 751 mmHg 49%
    19:00 +30°C° 0 mm 3 mps 752 mmHg 52%
    20:00 +28°C° 0 mm 3 mps 752 mmHg 55%
    21:00 +27°C° 0 mm 3 mps 752 mmHg 59%
    22:00 +26°C° 0 mm 3 mps 752 mmHg 62%
    23:00 +26°C° 0 mm 3 mps 752 mmHg 65%

    Day after tomorrow, 23 July, Monday

    Time Temperature Precipitation Wind Pressure Humidity
    00:00 +25°C° 0 mm 3 mps 752 mmHg 68%
    01:00 +24°C° 0 mm 2 mps 752 mmHg 70%
    02:00 +24°C° 0 mm 2 mps 752 mmHg 72%
    03:00 +23°C° 0 mm 2 mps 752 mmHg 74%
    04:00 +24°C° 0.1 mm 2 mps 752 mmHg 74%
    05:00 +24°C° 0.1 mm 2 mps 752 mmHg 75%
    06:00 +24°C° 0.1 mm 2 mps 752 mmHg 75%
    07:00 +26°C° 0.2 mm 2 mps 752 mmHg 69%
    08:00 +27°C° 0.2 mm 2 mps 752 mmHg 63%
    09:00 +29°C° 0.2 mm 2 mps 752 mmHg 56%
    10:00 +30°C° 0.2 mm 3 mps 752 mmHg 52%
    11:00 +31°C° 0.2 mm 3 mps 752 mmHg 47%
    12:00 +33°C° 0.2 mm 3 mps 752 mmHg 42%
    13:00 +32°C° 0 mm 2 mps 752 mmHg 42%
    14:00 +32°C° 0 mm 2 mps 752 mmHg 42%
    15:00 +32°C° 0 mm 2 mps 752 mmHg 42%
    16:00 +32°C° 0 mm 1 mps 751 mmHg 43%
    17:00 +32°C° 0 mm 1 mps 751 mmHg 44%
    18:00 +32°C° 0 mm 1 mps 751 mmHg 45%
    19:00 +30°C° 0.2 mm 1 mps 752 mmHg 49%
    20:00 +29°C° 0.2 mm 1 mps 752 mmHg 53%
    21:00 +28°C° 0.2 mm 1 mps 752 mmHg 57%
    22:00 +27°C° 0.6 mm 1 mps 752 mmHg 62%
    23:00 +26°C° 0.6 mm 1 mps 752 mmHg 66%

    24 July, Tuesday

    Time Temperature Precipitation Wind Pressure Humidity
    00:00 +25°C° 0.6 mm 1 mps 752 mmHg 71%
    01:00 +25°C° 0.7 mm 1 mps 752 mmHg 74%
    02:00 +24°C° 0.7 mm 2 mps 752 mmHg 78%
    03:00 +24°C° 0.7 mm 2 mps 752 mmHg 81%
    04:00 +24°C° 0.4 mm 2 mps 752 mmHg 82%
    05:00 +24°C° 0.4 mm 2 mps 752 mmHg 82%
    06:00 +24°C° 0.4 mm 2 mps 752 mmHg 83%
    07:00 +25°C° 0 mm 2 mps 752 mmHg 76%
    08:00 +27°C° 0 mm 2 mps 752 mmHg 69%
    09:00 +28°C° 0 mm 2 mps 752 mmHg 62%
    10:00 +29°C° 0.1 mm 2 mps 752 mmHg 57%
    11:00 +31°C° 0.1 mm 2 mps 752 mmHg 51%
    12:00 +32°C° 0.1 mm 2 mps 752 mmHg 46%
    13:00 +32°C° 0 mm 2 mps 752 mmHg 46%
    14:00 +32°C° 0 mm 2 mps 752 mmHg 45%
    15:00 +32°C° 0 mm 2 mps 752 mmHg 45%
    16:00 +32°C° 0 mm 2 mps 752 mmHg 47%
    17:00 +33°C° 0 mm 3 mps 752 mmHg 49%
    18:00 +31°C° 0 mm 3 mps 752 mmHg 51%
    19:00 +30°C° 0 mm 3 mps 752 mmHg 53%
    20:00 +29°C° 0 mm 3 mps 753 mmHg 56%
    21:00 +28°C° 0 mm 3 mps 753 mmHg 59%
    22:00 +28°C° 0 mm 3 mps 753 mmHg 62%
    23:00 +27°C° 0 mm 3 mps 753 mmHg 66%

    25 July, Wednesday

    Time Temperature Precipitation Wind Pressure Humidity
    00:00 +26°C° 0 mm 4 mps 753 mmHg 69%
    01:00 +26°C° 0 mm 4 mps 753 mmHg 73%
    02:00 +25°C° 0 mm 4 mps 753 mmHg 76%
    03:00 +25°C° 0 mm 4 mps 753 mmHg 80%
    04:00 +25°C° 0.2 mm 4 mps 753 mmHg 79%
    05:00 +25°C° 0.2 mm 4 mps 753 mmHg 79%
    06:00 +25°C° 0.2 mm 5 mps 754 mmHg 78%
    07:00 +26°C° 0.4 mm 5 mps 754 mmHg 73%
    08:00 +27°C° 0.4 mm 5 mps 754 mmHg 69%
    09:00 +28°C° 0.4 mm 6 mps 754 mmHg 64%
    10:00 +29°C° 0.2 mm 6 mps 754 mmHg 59%
    11:00 +30°C° 0.2 mm 6 mps 754 mmHg 54%
    12:00 +32°C° 0.2 mm 6 mps 754 mmHg 49%
    13:00 +33°C° 0 mm 6 mps 754 mmHg 45%
    14:00 +34°C° 0 mm 6 mps 753 mmHg 41%
    15:00 +35°C° 0 mm 7 mps 753 mmHg 38%
    16:00 +35°C° 0 mm 6 mps 753 mmHg 37%
    17:00 +35°C° 0 mm 6 mps 753 mmHg 37%
    18:00 +35°C° 0 mm 5 mps 753 mmHg 37%
    19:00 +33°C° 0.1 mm 5 mps 753 mmHg 41%
    20:00 +30°C° 0.1 mm 4 mps 753 mmHg 45%
    21:00 +29°C° 0.1 mm 4 mps 753 mmHg 49%
    22:00 +28°C° 0.1 mm 4 mps 753 mmHg 48%
    23:00 +28°C° 0.1 mm 4 mps 753 mmHg 48%

    26 July, Thursday

    Time Temperature Precipitation Wind Pressure Humidity
    00:00 +27°C° 0.1 mm 5 mps 753 mmHg 48%
    01:00 +27°C° 0.1 mm 4 mps 753 mmHg 47%
    02:00 +27°C° 0.1 mm 4 mps 754 mmHg 46%
    03:00 +26°C° 0.1 mm 4 mps 754 mmHg 46%
    04:00 +26°C° 0 mm 4 mps 754 mmHg 47%
    05:00 +25°C° 0 mm 4 mps 754 mmHg 49%
    06:00 +25°C° 0 mm 4 mps 754 mmHg 51%
    07:00 +27°C° 0 mm 5 mps 754 mmHg 47%
    08:00 +29°C° 0 mm 5 mps 755 mmHg 44%
    09:00 +30°C° 0 mm 5 mps 755 mmHg 40%
    10:00 +33°C° 0.1 mm 6 mps 755 mmHg 37%
    11:00 +35°C° 0.1 mm 6 mps 755 mmHg 33%
    12:00 +38°C° 0.1 mm 6 mps 755 mmHg 29%
    13:00 +39°C° 0 mm 7 mps 754 mmHg 28%
    14:00 +39°C° 0 mm 7 mps 754 mmHg 26%
    15:00 +40°C° 0 mm 7 mps 754 mmHg 25%
    16:00 +39°C° 0 mm 6 mps 754 mmHg 27%
    17:00 +39°C° 0 mm 5 mps 754 mmHg 30%
    18:00 +37°C° 0 mm 5 mps 754 mmHg 32%
    19:00 +35°C° 0 mm 5 mps 755 mmHg 36%
    20:00 +34°C° 0 mm 5 mps 755 mmHg 40%
    21:00 +32°C° 0 mm 5 mps 755 mmHg 44%
    22:00 +32°C° 0.1 mm 5 mps 755 mmHg 44%
    23:00 +30°C° 0.1 mm 5 mps 756 mmHg 43%
    Show more